This demonstration page uses our WeatherBlox Daily Observations layout. Learn more.

36.17497, -115.13722

Hourly Observations for March 21, 2018

Temp ( °F °C ) Dew Point ( °F °C ) Humidity (%) Winds ( mph kmh ) Pressure ( in mb ) Visibility ( mi km ) Precip ( " mm )
12:53 am 00:53 Cloudy 60 15.6 24 -4.4 25 25 NNE 3 6 29.99 1016 10 16.0934 0 0
1:53 am 01:53 Cloudy 59 15 23 -5 25 25 NE 5 7 29.98 1015 10 16.0934 0 0
2:53 am 02:53 Cloudy 59 15 24 -4.4 26 26 NNE 3 6 29.96 1015 10 16.0934 0 0
3:53 am 03:53 Mostly Cloudy 58 14.4 24 -4.4 27 27 WNW 3 6 29.95 1014 10 16.0934 0 0
4:53 am 04:53 Clear 56 13.3 25 -3.9 30 30 Calm 29.95 1014 10 16.0934 0 0
5:53 am 05:53 Clear 53 11.7 27 -2.8 37 37 NNW 5 7 29.95 1014 10 16.0934 0 0
6:53 am 06:53 Sunny 52 11.1 25 -3.9 35 35 Calm 29.97 1015 10 16.0934 0 0
7:53 am 07:53 Sunny 56 13.3 26 -3.3 32 32 NNE 3 6 30 1016 10 16.0934 0 0
8:53 am 08:53 Sunny 60 15.6 27 -2.8 28 28 ESE 3 6 30.01 1016 10 16.0934 0 0
9:53 am 09:53 Sunny 61 16.1 27 -2.8 27 27 E 3 6 30.01 1016 10 16.0934 0 0
10:53 am 10:53 Sunny 64 17.8 29 -1.7 27 27 E 6 9 30.01 1016 10 16.0934 0 0
11:53 am 11:53 Sunny 67 19.4 33 0.6 28 28 E 10 17 30 1016 10 16.0934 0 0
12:53 pm 12:53 Sunny 68 20 36 2.2 31 31 E 12 19 29.98 1015 10 16.0934 0 0
1:53 pm 13:53 Sunny 71 21.7 36 2.2 28 28 E 13 20 29.97 1015 10 16.0934 0 0
2:51 pm 14:51 Partly Cloudy 72 22 43 6 36 36 SW 20 31 29.85 1011 10 16.0934 0 0
2:53 pm 14:53 Partly Cloudy 72 22.2 43 6.1 35 35 SW 20 31 29.94 1014 10 16.0934 0 0
3:53 pm 15:53 Sunny 70 21.1 45 7.2 41 41 SW 14 22 29.96 1015 10 16.0934 0 0
4:53 pm 16:53 Partly Cloudy 70 21.1 46 7.8 42 42 SSW 17 28 29.96 1015 10 16.0934 0 0
5:53 pm 17:53 Sunny 69 20.6 46 7.8 44 44 SW 23 37 29.95 1014 10 16.0934 0 0
6:53 pm 18:53 Sunny 68 20 46 7.8 45 45 SW 17 28 29.96 1015 10 16.0934 0 0
7:53 pm 19:53 Clear 68 20 45 7.2 44 44 WSW 14 22 29.97 1015 10 16.0934 0 0
8:53 pm 20:53 Cloudy 68 20 45 7.2 44 44 S 13 20 29.98 1015 10 16.0934 0 0
9:53 pm 21:53 Partly Cloudy 67 19.4 46 7.8 47 47 S 12 19 30 1016 10 16.0934 0 0
10:53 pm 22:53 Clear 66 18.9 47 8.3 50 50 SW 8 13 30.01 1016 10 16.0934 0 0
11:53 pm 23:53 Clear 66 18.9 47 8.3 50 50 SW 5 7 29.99 1016 10 16.0934 0 0

Powered by AerisWeather